STARLINK-1035, 44740

Orbit data source: Space-Track

STARLINK-1035, 44740 is a payload satellite owned by SpaceX/Seattle (US) in LEO that was launched on Mon, 11 Nov 2019 UTC via an FALCON 9 launch vehicle from the Air Force Eastern Test Range (AFETR). Payloads include a variety of satellites, spacecraft, and rockets equipped with specific instruments for various scientific and technological missions. These include communications satellites like Starlink; space stations such as the ISS; scientific satellites like the Hubble; Earth observation satellites from companies like Planet Labs, Umbra, and HawkEye 360; GPS; miniature CubeSats for education and research; and military/defense satellites.

Loading next visibility...
STARLINK-1035 details
Identifier
44740, 2019-074AD
Orbit
LEO
Last TLE update20 hours ago
Origin
Flag of USSpaceX/Seattle (US)
ManufacturerSpaceX/Seattle
MissionOperational Commercial Communications
Bus & MotorSTARLINK, Unknown motor
Mass260 kg wet, ~248 kg dry
Launch date (UTC)
2019-11-11 (5 years ago)
Launch vehicle
FALCON 9
Launch site
Air Force Eastern Test Range (AFETR)
Object type
Payload
Rocket body
Debris
Shape & HBRBox + 1 Pan, 8.86 m
Radar Cross Section13.562 m², Large (>1 m²)

Expand to show TLE details & history

TLE from 20 hours ago
0 STARLINK-1035
1 44740U 19074AD  24360.58335648  .01234463  00000-0  57021-1 0  9996
2 44740  53.0539  17.6025 0001346  86.2587 206.5638 15.16633669  5839
Epoch: 2024-12-25T14:00Z
Definitive object data (Epoch: 2024-12-25T14:00:01.999Z)
Latitude-47.62872°
Longitude17.94058°
Altitude533.147 km
Speed7.595 km/s
True Right ascension21h 30m 05s
True Declination-47° 27' 07"
Sunlit
Object was in daylight at TLE epoch
Visualization TLE readout
Latitude-46.56851°
Longitude-58.66077°
Altitude526.67 km
Speed7.599 km/s
Apparent Right ascension19h 05m 23s
Apparent Declination-50° 39' 59"
Sunlit
Object is in daylight
Visualization observer readout
Local Sidereal Time09:41:25
Azimuth124.793° SE
Elevation-60.936°
Doppler factor1
Orbital elements
Apogee altitude517.223 km
Perigee altitude515.367 km
Semi-major axis6,894.432 km
Eccentricity0.0001346
Inclination53.0539°
RAAN17.6025°
Arg. of periapsis86.2587°
True anomaly206.5569°
Mean anomaly206.5638°
Eccentric anomaly206.56035°
Mean motion3.79136 °/min
BSTAR0.057021
Orbital period94.95 mins
Loading maneuver chart data...

STARLINK-1035 Visibility forecast

Observer location: undefined°, undefined

Span
Click to sort rows by Start time (UTC) header in descending order
Start Az.
Max El. time (UTC)
Max El. Az.
Max El.
End time (UTC)
End Az.
7 mins2024-12-26 11:21:14.925Z300.025° NW2024-12-26 11:25:14.925Z204.942° SW36.698°2024-12-26 11:28:14.925Z150.878° SSE
4 mins2024-12-27 02:48:14.925Z157.332° SSE2024-12-27 02:49:14.925Z134.977° SE21.085°2024-12-27 02:52:14.925Z79.313° E
6 mins2024-12-27 04:25:14.925Z257.881° W2024-12-27 04:28:14.925Z347.006° N34.61°2024-12-27 04:31:14.925Z39.064° NE
4 mins2024-12-27 09:25:14.925Z352.099° N2024-12-27 09:26:14.925Z16.046° NNE24.173°2024-12-27 09:29:14.925Z81.056° E
|